Weather History for KBKW - April, 2014

Change the Weather History Date:

Friday, April 18, 2014

  Actual Average Record
Temperature  
Mean Temperature 53 °F 53 °F  
Max Temperature 64 °F 64 °F 86 °F (1976)
Min Temperature 41 °F 42 °F 20 °F (1951)
Degree Days  
Heating Degree Days 12 12  
Month to date heating degree days 213 268  
Since 1 July heating degree days 5239 4981  
Cooling Degree Days 0 0  
Month to date cooling degree days 5 0  
Year to date cooling degree days 5 1  
Growing Degree Days 2 (Base 50)    
Moisture  
Dew Point 27 °F    
Average Humidity 40    
Maximum Humidity 57    
Minimum Humidity 23    
Precipitation  
Precipitation 0.00 in 0.11 in 0.97 in (2003)
Month to date precipitation 1.52 1.95  
Year to date precipitation 9.09 11.09  
Snow  
Snow 0.00 in - - ()
Month to date snowfall 0.6  
Since 1 September snowfall 76.3  
Snow Depth 0.00 in    
Sea Level Pressure  
Sea Level Pressure 30.30 in    
Wind  
Wind Speed 6 mph (SSE)    
Max Wind Speed 16 mph    
Max Gust Speed 23 mph    
Visibility 10 miles    
Events      
T = Trace of Precipitation, MM = Missing Value Source: NWS Daily Summary

Daily Weather History Graph

Daily Weather History Graph

Search for Another Location

Airport or City:

Trip Planner

Search our weather history database for the weather conditions in past years. The results will help you decide how hot, cold, wet, or windy it might be!

Date:

Astronomy

Apr. 18, 2014 Rise Set
Actual Time 6:45 AM EDT 8:02 PM EDT
Civil Twilight 6:17 AM EDT 8:30 PM EDT
Nautical Twilight 5:45 AM EDT 9:03 PM EDT
Astronomical Twilight 5:11 AM EDT 9:37 PM EDT
Moon 11:44 PM EDT (4/18) 9:08 AM EDT (4/18)
Length of Visible Light 14h 12m
Length of Day
13h 17m
Waning Gibbous, 87% of the Moon is Illuminated
Apr 18
Waning Gibbous
Apr 22
Last Quarter
Apr 29
New
May 6
First Quarter
May 14
Full

Hourly Weather History & Observations

Time (EDT) Temp. Windchill Dew Point Humidity Pressure Visibility Wind Dir Wind Speed Gust Speed Precip Events Conditions
12:51 AM 45.0 °F 39.3 °F 21.0 °F 39% 30.38 in 10.0 mi SE 11.5 mph 23.0 mph N/A   Clear
1:51 AM 45.0 °F 39.7 °F 21.0 °F 39% 30.36 in 10.0 mi SE 10.4 mph 20.7 mph N/A   Clear
2:51 AM 45.0 °F 40.1 °F 21.9 °F 40% 30.34 in 10.0 mi SE 9.2 mph 20.7 mph N/A   Clear
3:51 AM 44.1 °F 40.8 °F 23.0 °F 43% 30.33 in 10.0 mi SSE 5.8 mph - N/A   Clear
4:51 AM 43.0 °F 38.8 °F 24.1 °F 47% 30.34 in 10.0 mi SSE 6.9 mph - N/A   Clear
5:51 AM 43.0 °F 38.2 °F 25.0 °F 49% 30.33 in 10.0 mi SSE 8.1 mph - N/A   Clear
6:51 AM 42.1 °F 37.7 °F 27.0 °F 55% 30.35 in 10.0 mi SSE 6.9 mph - N/A   Clear
7:51 AM 42.1 °F 37.1 °F 28.0 °F 58% 30.38 in 10.0 mi SE 8.1 mph - N/A   Clear
8:51 AM 46.0 °F 43.9 °F 28.9 °F 51% 30.38 in 10.0 mi SSE 4.6 mph - N/A   Clear
9:51 AM 52.0 °F - 26.1 °F 37% 30.35 in 10.0 mi South 4.6 mph - N/A   Clear
10:51 AM 55.4 °F - 26.6 °F 33% 30.35 in 10.0 mi South 4.6 mph - N/A   Clear
11:51 AM 57.9 °F - 27.0 °F 31% 30.34 in 10.0 mi Calm Calm - N/A   Clear
12:51 PM 60.1 °F - 28.0 °F 30% 30.32 in 10.0 mi NW 6.9 mph - N/A   Clear
1:51 PM 60.1 °F - 28.0 °F 30% 30.30 in 10.0 mi Calm Calm - N/A   Clear
2:51 PM 63.0 °F - 27.0 °F 26% 30.27 in 10.0 mi NE 4.6 mph - N/A   Clear
3:51 PM 63.0 °F - 25.0 °F 24% 30.25 in 10.0 mi Variable 3.5 mph - N/A   Clear
4:51 PM 63.0 °F - 27.0 °F 26% 30.22 in 10.0 mi West 5.8 mph - N/A   Clear
5:51 PM 63.0 °F - 27.0 °F 26% 30.21 in 10.0 mi WSW 4.6 mph - N/A   Clear
6:51 PM 62.1 °F - 28.9 °F 29% 30.22 in 10.0 mi Calm Calm - N/A   Clear
7:51 PM 57.9 °F - 32.0 °F 37% 30.23 in 10.0 mi SSE 6.9 mph - N/A   Clear
8:51 PM 55.9 °F - 32.0 °F 40% 30.23 in 10.0 mi SSE 5.8 mph - N/A   Clear
9:51 PM 54.0 °F - 30.9 °F 41% 30.23 in 10.0 mi SSE 6.9 mph - N/A   Clear
10:51 PM 54.0 °F - 30.0 °F 40% 30.22 in 10.0 mi SSE 8.1 mph - N/A   Clear
11:51 PM 51.8 °F - 30.2 °F 44% 30.22 in 10.0 mi North 9.2 mph - N/A   Clear